Etusivu
METAR-TAF:

METAR-TAF

Lentoasemat :

Kelso, Washington, Yhdysvallat

Leveyspiiri: 46-07N, Pituuspiiri: 122-54W, korkeus merenpinnasta: 5 m

Tämänhetkinen sää

Tämä raportti tehtiin 16 minuuttia sitten, kello 15.56 UTC
tyyntä
Lämpötila 3°C
Kosteus 100%
Ilmanpaine 1019 hPa
Näkyvyys: 12.9 km
selkeää

METAR: KKLS 011556Z AUTO 00000KT 8SM CLR 03/03 A3008 RMK AO2 SLP189 T00330028

Aika: 08:12 (16:12 UTC)


TAF: puuttuu

Säähavainnot ja -ennusteet yli 4000 lentoasemalta (METAR- ja TAF-raportit).

Käytössä olevat sääasemat on merkitty karttaan keltaisilla ja punaisilla pisteillä.

Aseta hiiri pisteen päälle nähdäksesi sääaseman nimen.

Klikkaa sitten nähdäksesi säähavainnot ja -ennusteet.

Kartan vaihtaminen: klikkaa mustalla rastilla varustettuja vihreitä pisteitä, niin voit zoomata sisään; viivalla varustettua vihreää pistettä, niin voit zoomata ulos tai vihreitä nuolia, niin pääset viereisille kartoille.


METAR-TAF: